AZERSPACE 2 (IS-38)

Last updated on Fri Jul 11 2025 00:02:45 GMT+0000 (Coordinated Universal Time)

1 43632U 18074A 25191.21374303 .00000149 00000+0 00000+0 0 9991 2 43632 0.0295 49.4013 0001545 59.5117 301.5274 1.00271176 25015
UTC large
Height (km)
Speed (km/s)
/
Latitude / Longitude
Inclination (degrees)
Orbital Period (minutes)
Azimuth
Elevation
Range (km)
Doppler Factor

Next 0 passes for location: London (51.5072 / 0.1276)

Sorry there are no passes over London.